Temperature
31 32 32 33 33 33 33 32 32 31 31 31 31 30 30 28 27 27 26 25 25 24 23 22 21 21 20 20 19 19 19 19 18 18 18 18 18 18 18 18 18 17 17 17
31 32 33 33 32 32 32 32 32 31 31 31 31 31 30 29 28 27 27 26 26 25 24 22 22 21 21 20 20 19 19 19 19 19 18 18 18 18 18 18 17 17 17 17
32 32 32 32 32 31 32 32 32 31 31 31 31 31 30 30 28 28 27 27 26 25 24 23 22 21 21 21 20 20 20 19 19 19 18 18 18 18 18 18 17 17 17 17
32 32 31 31 31 32 31 32 32 31 31 31 31 31 31 30 30 29 28 27 27 26 25 24 23 22 21 21 21 20 20 20 20 19 19 18 18 18 18 18 18 17 17 17
31 31 31 31 31 32 31 32 32 31 31 31 31 31 32 31 30 30 29 28 27 27 26 25 24 23 22 22 21 21 20 20 20 19 19 19 19 18 18 18 18 17 17 17
32 32 32 32 32 31 31 31 31 31 32 30 31 31 31 32 31 31 30 29 28 27 26 25 24 23 22 22 21 21 21 20 20 20 19 19 19 18 18 18 18 18 18 17
30 31 31 31 31 31 31 31 30 30 30 30 31 31 31 32 32 32 31 30 29 28 27 26 24 23 23 22 22 21 21 21 20 20 19 19 19 18 18 18 18 18 18 18
30 30 31 31 31 31 31 31 30 30 30 31 30 31 32 32 31 30 30 30 29 28 27 26 25 24 23 22 22 21 21 21 21 20 20 20 19 19 18 18 18 18 18 18
30 30 31 31 31 32 31 31 32 31 31 31 31 31 32 32 31 31 30 30 29 28 27 26 25 24 24 23 22 22 22 22 21 21 20 20 20 19 19 18 18 18 18 17
31 30 30 30 31 31 32 32 31 31 29 30 30 31 31 31 31 31 31 30 29 28 27 26 25 25 24 23 23 22 22 22 21 21 21 20 20 20 19 19 18 18 18 18
31 30 30 30 30 30 30 31 31 31 31 30 30 31 32 31 31 31 31 30 29 28 27 26 25 24 24 23 23 22 22 22 22 21 21 20 20 20 19 19 19 18 18 18
29 30 30 30 30 31 31 31 31 30 30 30 31 31 32 32 31 31 31 29 28 28 27 26 25 24 23 23 23 23 22 22 22 21 21 21 20 20 19 19 19 19 18 18
28 29 28 29 29 30 30 30 31 31 31 30 31 31 31 31 31 30 30 28 27 26 26 26 25 24 23 23 23 23 22 22 21 21 21 21 20 20 19 19 19 19 18 18
26 28 29 29 30 30 30 30 30 30 30 30 31 31 31 31 31 30 29 28 27 26 25 25 24 23 23 23 23 22 22 22 21 21 21 20 20 20 20 19 19 19 18 18
27 27 28 29 30 30 30 30 30 30 31 31 31 31 31 30 30 29 28 28 27 26 25 24 24 23 23 23 23 22 22 22 21 21 21 20 20 20 20 19 19 19 18 18
25 26 27 28 29 29 29 30 30 30 30 31 31 31 31 30 29 28 27 27 27 26 25 24 24 23 23 23 23 23 22 22 22 21 21 21 20 20 20 19 19 19 18 18
25 25 26 27 28 28 28 29 29 30 30 30 30 30 30 30 29 28 27 26 26 25 25 24 23 23 23 23 23 23 23 22 22 21 21 20 20 20 20 19 19 18 18 18
23 24 26 27 27 26 28 30 30 29 29 30 30 30 29 29 28 27 26 26 25 25 24 24 23 23 23 23 23 23 22 22 22 21 21 20 20 20 20 19 19 18 18 18
23 23 25 26 26 27 28 28 29 28 28 28 28 29 28 28 28 27 26 25 24 24 24 23 23 23 23 23 22 22 22 22 21 21 21 21 20 20 20 19 19 18 18 18
22 23 25 25 26 26 27 28 28 28 27 27 27 27 27 28 29 28 25 24 24 23 23 23 23 22 22 23 22 22 22 21 21 21 20 20 20 20 19 19 19 18 18 17
23 23 24 25 25 27 27 27 27 26 26 26 26 26 26 26 27 25 24 23 23 23 22 22 22 22 22 22 22 22 21 21 21 20 20 20 20 19 19 19 18 18 18 17
23 24 23 24 25 25 26 26 26 25 24 25 25 25 25 24 24 23 23 22 22 22 22 22 21 21 21 21 21 21 21 21 20 20 20 19 19 19 19 18 18 18 17 17
23 24 24 24 24 23 23 23 23 22 23 23 24 23 23 23 23 23 22 22 22 21 21 21 21 21 21 21 21 21 21 20 20 20 20 19 19 19 18 18 18 17 17 17
21 21 22 22 23 22 22 21 21 21 21 22 22 22 22 22 22 22 21 21 21 21 21 21 21 21 21 20 20 20 20 20 20 20 19 19 19 18 18 18 17 17 17 17
21 21 22 21 21 21 21 20 20 20 20 20 21 21 21 21 21 21 21 21 21 20 20 20 20 20 20 20 20 20 20 20 19 19 19 18 18 18 17 17 17 17 17 17
20 21 21 21 20 21 20 19 19 19 19 19 20 20 20 20 20 20 20 20 20 20 20 19 19 19 19 19 19 19 19 19 19 18 18 18 18 17 17 17 17 17 17 17
Wind_Speed
8 9 9 8 6 3 3 4 4 5 5 5 3 4 8 11 12 11 11 11 11 10 10 10 10 9 8 8 7 7 6 5 4 3 3 2 2 1 1 1 1 0 1 1
10 11 8 6 7 6 6 5 5 5 4 4 2 3 6 10 12 12 12 12 12 12 11 11 11 10 10 9 8 8 7 6 6 4 3 2 1 1 1 1 1 1 0 1
14 8 8 9 9 9 8 7 5 4 5 5 4 5 7 9 10 11 12 12 12 12 13 13 12 11 11 10 10 8 7 7 6 5 4 4 3 2 2 1 1 0 0 0
12 9 10 11 11 10 8 6 6 6 6 3 4 2 5 8 9 11 13 13 13 13 13 13 13 13 12 11 10 9 8 7 7 6 5 5 3 2 1 1 1 1 0 1
11 11 12 13 11 10 6 5 6 7 7 5 5 5 3 7 7 10 12 13 14 14 14 14 14 13 12 11 10 10 9 8 8 7 6 6 4 3 2 2 1 1 1 1
10 8 10 10 8 8 7 7 6 8 8 7 5 6 2 4 5 7 9 11 13 14 14 14 13 12 12 11 10 10 10 9 9 8 7 6 5 4 3 3 2 2 1 1
12 11 9 9 10 11 11 10 7 8 8 6 4 6 3 1 3 4 7 10 12 13 14 14 14 14 13 12 12 11 11 10 9 9 8 7 7 6 5 4 3 3 2 1
16 14 12 10 12 11 14 14 10 7 7 5 6 6 3 2 2 3 5 8 10 13 13 14 15 14 14 13 13 12 11 11 10 10 9 8 7 6 5 5 3 3 2 1
13 13 11 10 10 11 13 13 11 9 8 7 6 5 4 3 4 5 6 7 10 12 13 14 14 14 14 13 13 13 12 11 11 11 10 8 7 6 5 4 5 3 3 2
9 10 11 11 9 8 10 11 9 9 8 9 8 8 5 5 5 5 6 7 8 10 12 13 13 13 13 12 12 12 12 11 11 11 9 8 8 7 6 5 4 4 3 2
10 10 12 13 13 13 11 13 11 9 9 9 7 5 4 5 4 4 5 6 8 9 11 12 12 12 12 12 12 11 11 11 10 10 9 8 8 8 7 6 6 5 4 4
10 10 12 13 10 9 13 13 13 11 9 9 8 4 4 4 4 4 4 6 7 8 9 10 11 12 12 12 11 11 11 11 10 10 9 9 8 8 7 7 6 6 5 4
7 9 12 13 12 11 13 13 14 12 10 10 10 5 6 5 4 4 4 6 7 7 8 9 10 11 11 12 11 11 11 10 10 10 9 9 8 8 7 7 6 6 5 4
6 10 13 15 12 14 15 15 15 15 12 12 11 7 6 5 5 4 4 6 7 8 7 8 9 9 10 10 11 10 10 10 10 10 9 9 9 8 8 7 6 6 5 5
6 11 13 12 10 11 13 15 16 17 15 13 11 9 6 4 4 4 4 5 6 7 8 8 8 9 10 10 10 10 10 10 10 10 9 9 9 8 7 7 7 6 6 6
4 8 12 13 12 13 13 14 16 16 14 13 11 8 4 4 3 3 4 6 6 6 7 8 8 8 9 10 10 10 10 10 10 10 9 9 9 8 8 8 7 7 7 6
6 7 11 14 13 13 16 15 15 14 12 12 11 7 5 5 4 3 4 5 6 6 7 8 8 8 9 9 10 10 10 10 10 10 9 9 9 9 8 8 8 7 7 7
6 8 9 12 13 17 11 10 12 12 11 9 8 6 5 5 4 3 3 4 4 5 6 7 7 8 8 9 9 9 10 10 10 10 9 9 9 9 8 8 8 7 7 6
8 8 8 11 15 14 10 9 11 12 11 8 7 6 5 5 5 3 2 2 3 5 5 6 7 7 7 8 9 9 9 10 10 10 10 10 9 9 8 8 8 7 7 7
8 9 10 11 14 15 10 9 9 11 12 7 7 6 5 5 8 4 1 2 2 2 3 4 5 6 6 7 8 9 9 9 10 9 9 9 9 9 9 8 7 7 7 7
11 10 13 14 13 10 4 6 9 13 8 6 6 5 4 5 5 3 2 1 1 1 2 4 5 5 5 6 8 8 8 8 8 8 8 8 8 9 8 7 7 7 7 6
12 11 13 13 14 10 3 7 8 3 1 2 4 4 4 4 4 3 2 1 0 1 3 4 5 5 5 6 7 7 7 7 7 7 7 8 8 7 7 7 7 7 7 7
9 7 7 7 6 1 1 1 1 0 1 2 3 3 4 4 4 3 1 0 1 1 2 3 4 4 4 5 6 7 6 6 6 7 7 7 7 7 7 7 7 7 7 7
6 3 5 5 5 3 2 1 1 1 2 2 3 4 4 4 4 3 2 1 1 1 2 3 4 4 4 4 5 5 5 5 6 7 7 7 7 7 7 6 7 7 7 7
5 5 6 7 5 4 4 2 1 1 2 2 3 3 3 4 3 3 2 2 1 1 2 3 4 4 4 4 4 4 5 5 6 6 6 6 6 6 6 6 6 7 6 6
8 8 9 8 5 5 4 2 3 2 2 3 3 3 3 3 3 2 2 1 1 2 2 3 4 4 4 4 4 4 5 6 6 6 6 5 5 5 6 6 5 4 5 3
Wind_Direction
199 211 206 198 213 222 197 188 154 128 149 188 184 152 160 176 188 188 187 187 188 191 187 186 189 190 188 190 192 196 200 191 198 200 207 196 190 184 161 135 83 31 350 15
203 216 213 202 202 212 210 204 174 147 156 203 201 185 168 181 194 197 195 195 193 190 187 188 190 191 192 192 195 195 197 194 199 192 200 200 200 195 152 119 80 37 46 329
214 205 192 196 199 208 217 216 202 174 171 202 222 185 173 183 198 200 203 202 199 195 191 189 192 194 195 195 196 196 195 194 197 194 191 183 183 204 180 171 162 198 294 304
221 207 191 201 206 216 217 218 215 197 210 207 244 230 171 183 194 201 204 203 202 197 195 192 191 193 196 195 192 192 190 190 190 193 199 199 204 200 184 201 155 165 244 287
208 202 200 208 212 218 222 195 209 215 230 244 229 260 160 174 200 201 201 204 203 199 196 194 194 190 193 192 189 187 186 188 189 192 194 203 210 204 193 187 175 237 196 257
212 197 211 215 207 199 175 172 193 220 239 241 239 254 225 176 208 200 195 198 199 196 195 194 192 187 190 189 187 185 183 188 189 192 197 204 210 214 213 216 219 219 206 212
203 198 196 197 189 184 197 206 212 219 223 231 208 241 248 174 199 209 195 193 192 191 190 189 188 187 188 189 187 186 184 189 190 192 198 202 207 210 213 224 213 237 233 215
203 201 195 199 208 200 208 220 230 238 232 214 196 227 218 149 181 201 187 182 183 186 187 187 186 186 187 187 186 186 186 189 187 190 196 203 206 213 210 213 233 224 242 241
209 205 184 195 208 211 206 222 237 243 250 249 218 215 215 191 187 181 180 176 180 183 183 185 186 185 186 186 186 187 186 188 188 191 192 197 202 210 210 205 218 223 220 221
221 208 190 184 193 212 225 215 218 232 240 237 224 222 209 182 191 180 178 179 177 181 181 182 184 185 184 184 184 187 188 189 190 192 196 195 200 202 207 212 212 220 217 221
222 212 195 189 204 201 201 210 221 225 243 245 236 218 186 190 193 189 182 179 174 179 179 180 182 182 182 182 181 183 186 187 189 193 195 200 201 203 205 208 212 212 213 209
219 222 208 201 202 225 217 218 215 221 224 243 254 217 145 174 182 189 180 172 174 177 177 177 177 177 181 183 184 183 186 188 189 190 192 197 201 203 205 206 209 209 208 208
212 221 210 204 201 206 214 215 222 228 229 235 242 215 147 159 177 180 173 170 171 174 174 174 176 179 183 185 186 187 188 188 188 187 190 192 195 197 201 204 202 205 204 205
234 226 229 224 210 200 207 211 214 222 229 230 235 231 183 186 190 182 180 177 171 170 173 176 178 181 182 184 185 187 188 186 184 185 187 189 192 193 195 197 199 203 206 208
229 225 229 239 228 217 216 212 212 221 233 240 233 232 219 209 208 193 183 180 178 174 177 180 180 179 181 183 185 187 185 182 181 181 185 189 190 189 191 193 199 204 208 211
236 228 223 227 226 220 221 220 218 221 228 234 236 234 230 211 185 181 181 188 189 191 189 188 186 184 185 185 186 185 183 180 180 183 187 187 187 188 191 195 198 201 206 211
218 221 222 223 217 220 222 218 216 215 222 229 231 233 236 226 209 203 195 201 206 205 200 193 191 193 192 189 186 184 180 178 181 186 188 188 189 191 194 198 199 204 207 209
226 228 226 225 213 225 223 210 214 217 220 228 240 244 237 240 225 217 208 218 225 219 211 201 197 196 194 187 183 182 178 180 184 188 190 190 192 195 196 199 203 208 209 211
222 219 224 224 221 221 210 205 211 216 219 225 235 242 246 237 216 209 221 247 238 233 217 202 197 192 186 183 178 178 181 183 188 192 194 194 194 196 197 201 204 206 208 214
203 220 226 223 227 227 212 200 210 215 219 215 225 235 245 230 231 215 298 291 268 243 212 197 189 180 176 176 174 181 185 189 196 198 199 197 196 199 202 204 206 206 208 216
193 204 220 225 230 229 204 187 196 216 217 203 216 227 235 231 259 294 295 284 268 204 181 176 173 173 173 172 173 184 187 194 197 196 197 198 199 202 204 204 206 208 210 214
210 209 213 222 229 223 171 190 205 212 108 188 218 230 233 240 253 269 279 276 159 137 152 162 164 163 165 171 177 186 193 195 192 190 193 196 200 206 202 202 207 210 212 214
226 233 226 227 228 94 106 196 187 233 233 259 250 251 255 252 256 267 250 190 140 130 148 161 158 156 163 177 185 194 195 192 190 189 194 198 200 204 204 203 206 212 216 223
215 243 231 226 217 221 203 203 247 234 251 266 270 261 252 251 259 260 241 202 186 179 164 168 166 167 174 185 195 199 192 191 193 194 195 196 199 206 209 213 215 220 223 227
238 221 224 228 227 232 224 242 253 288 318 300 290 275 259 253 260 261 251 233 224 218 196 191 193 193 193 189 192 199 192 190 198 203 202 207 212 213 214 222 231 232 234 238
234 233 234 238 226 239 232 254 281 280 300 316 312 294 278 266 260 257 254 255 245 236 222 211 211 210 208 201 201 202 200 199 203 207 211 216 222 220 227 227 234 248 246 238
Height
1501 1499 1499 1497 1497 1498 1500 1503 1507 1508 1509 1511 1512 1513 1517 1523 1527 1528 1531 1534 1537 1540 1543 1545 1547 1549 1550 1551 1552 1553 1554 1554 1555 1557 1557 1558 1558 1559 1559 1559 1558 1558 1557 1557
1499 1498 1495 1496 1499 1500 1501 1505 1507 1508 1509 1510 1511 1512 1513 1519 1522 1525 1528 1531 1534 1537 1541 1543 1545 1547 1548 1550 1551 1552 1553 1554 1554 1555 1556 1557 1557 1558 1558 1558 1558 1557 1557 1557
1495 1493 1495 1498 1501 1503 1502 1504 1505 1509 1510 1508 1510 1513 1512 1515 1519 1522 1525 1528 1530 1534 1537 1540 1542 1545 1546 1548 1549 1551 1551 1552 1553 1554 1556 1556 1556 1557 1558 1558 1557 1557 1557 1556
1492 1492 1496 1498 1499 1500 1505 1500 1502 1506 1511 1510 1511 1518 1510 1509 1513 1517 1520 1523 1526 1530 1533 1537 1539 1542 1544 1546 1547 1549 1550 1551 1552 1553 1555 1556 1556 1557 1557 1557 1557 1556 1556 1556
1491 1491 1495 1498 1497 1498 1500 1500 1502 1504 1507 1509 1508 1512 1507 1505 1509 1510 1514 1518 1521 1525 1529 1533 1536 1539 1541 1543 1545 1547 1548 1549 1551 1552 1553 1554 1555 1556 1556 1556 1556 1555 1555 1554
1487 1490 1492 1493 1495 1498 1500 1503 1505 1504 1503 1518 1510 1512 1510 1501 1503 1503 1508 1513 1517 1522 1526 1530 1533 1536 1539 1541 1543 1545 1546 1547 1549 1550 1551 1552 1553 1554 1555 1555 1555 1555 1555 1554
1492 1490 1491 1493 1495 1499 1500 1506 1517 1520 1518 1516 1504 1510 1507 1496 1498 1500 1504 1508 1513 1518 1522 1526 1530 1533 1535 1538 1540 1542 1543 1545 1547 1548 1549 1550 1551 1552 1552 1553 1554 1554 1554 1554
1494 1495 1489 1490 1491 1495 1497 1498 1514 1524 1520 1510 1507 1509 1499 1494 1498 1501 1503 1506 1510 1514 1518 1522 1526 1529 1532 1535 1537 1539 1541 1543 1544 1546 1547 1548 1549 1551 1552 1551 1552 1552 1553 1552
1485 1490 1485 1488 1488 1489 1495 1494 1490 1500 1505 1511 1505 1501 1495 1494 1497 1499 1502 1504 1507 1511 1515 1519 1523 1526 1529 1532 1534 1537 1538 1540 1542 1543 1545 1546 1547 1548 1549 1550 1550 1551 1550 1551
1478 1488 1485 1488 1490 1490 1487 1488 1494 1502 1517 1519 1510 1505 1500 1496 1495 1496 1499 1502 1505 1509 1512 1516 1520 1523 1526 1529 1532 1534 1536 1538 1539 1541 1543 1544 1545 1546 1547 1548 1548 1548 1549 1549
1477 1485 1487 1487 1490 1489 1491 1492 1492 1494 1498 1509 1515 1505 1487 1491 1492 1494 1497 1500 1503 1506 1509 1513 1517 1520 1524 1527 1529 1531 1534 1535 1537 1539 1540 1542 1543 1544 1545 1545 1546 1547 1547 1547
1479 1479 1485 1484 1483 1483 1483 1486 1490 1501 1505 1501 1502 1501 1485 1488 1491 1494 1496 1499 1502 1505 1508 1511 1514 1518 1521 1524 1526 1528 1531 1533 1534 1536 1537 1539 1540 1541 1543 1543 1544 1545 1545 1545
1481 1483 1493 1493 1491 1486 1485 1484 1485 1487 1493 1497 1502 1499 1485 1489 1491 1494 1496 1499 1502 1504 1507 1509 1512 1515 1518 1521 1523 1526 1528 1530 1532 1533 1535 1536 1537 1539 1540 1541 1542 1543 1543 1544
1485 1482 1484 1487 1481 1478 1484 1485 1485 1487 1493 1494 1494 1490 1486 1488 1490 1493 1496 1498 1500 1503 1506 1508 1510 1513 1515 1518 1520 1523 1525 1528 1529 1531 1532 1534 1535 1536 1537 1539 1540 1540 1541 1542
1484 1482 1479 1474 1472 1474 1477 1480 1482 1485 1484 1487 1486 1486 1485 1487 1490 1492 1495 1497 1499 1502 1504 1506 1508 1510 1512 1515 1517 1520 1522 1524 1526 1528 1529 1531 1532 1534 1535 1536 1537 1538 1539 1539
1485 1483 1480 1480 1475 1475 1478 1478 1479 1481 1481 1482 1482 1485 1483 1487 1490 1493 1495 1496 1498 1500 1502 1504 1506 1508 1510 1511 1514 1517 1519 1521 1523 1525 1527 1528 1530 1531 1532 1533 1534 1535 1536 1536
1483 1485 1485 1482 1476 1478 1483 1477 1477 1479 1478 1480 1484 1484 1484 1486 1489 1492 1494 1495 1496 1498 1500 1501 1503 1505 1506 1508 1511 1513 1516 1518 1520 1522 1524 1525 1526 1528 1529 1530 1531 1532 1532 1533
1488 1487 1483 1479 1483 1494 1476 1469 1472 1476 1477 1478 1480 1481 1484 1486 1488 1490 1492 1493 1494 1496 1497 1498 1500 1502 1504 1506 1508 1510 1513 1515 1517 1518 1520 1522 1523 1525 1526 1527 1527 1528 1528 1529
1487 1486 1482 1479 1482 1480 1474 1471 1473 1477 1479 1479 1481 1483 1484 1485 1486 1488 1490 1491 1492 1493 1494 1495 1497 1499 1500 1503 1505 1507 1509 1512 1513 1515 1517 1518 1520 1521 1522 1523 1524 1524 1524 1525
1485 1484 1482 1480 1483 1484 1473 1469 1473 1476 1482 1479 1481 1482 1484 1484 1482 1484 1488 1489 1490 1491 1492 1493 1495 1497 1498 1500 1502 1504 1506 1508 1510 1512 1514 1515 1516 1518 1518 1519 1520 1520 1520 1521
1481 1483 1481 1479 1479 1471 1467 1470 1473 1482 1479 1478 1480 1482 1483 1484 1485 1487 1487 1488 1488 1489 1490 1491 1492 1494 1495 1497 1499 1501 1503 1505 1507 1509 1510 1512 1513 1514 1515 1515 1515 1516 1516 1517
1474 1475 1479 1477 1479 1476 1470 1470 1473 1475 1477 1478 1480 1481 1483 1484 1485 1485 1486 1486 1486 1487 1488 1489 1490 1491 1493 1495 1497 1498 1500 1502 1503 1505 1506 1507 1509 1510 1511 1511 1511 1512 1512 1513
1471 1470 1468 1471 1473 1473 1473 1474 1476 1478 1479 1479 1480 1481 1482 1482 1483 1484 1484 1485 1485 1486 1486 1487 1489 1490 1491 1492 1494 1496 1497 1499 1500 1501 1502 1503 1505 1505 1506 1507 1507 1508 1508 1509
1473 1475 1473 1473 1472 1474 1475 1476 1477 1478 1478 1479 1479 1480 1480 1480 1481 1482 1483 1483 1483 1484 1485 1486 1487 1488 1489 1490 1492 1493 1494 1495 1496 1497 1498 1499 1500 1501 1502 1503 1503 1504 1504 1505
1472 1474 1472 1473 1474 1475 1476 1477 1477 1478 1478 1478 1478 1478 1478 1478 1479 1479 1480 1481 1481 1482 1483 1484 1485 1485 1486 1487 1489 1490 1491 1492 1493 1494 1494 1495 1496 1497 1497 1498 1498 1499 1499 1500
1473 1472 1471 1469 1473 1474 1475 1477 1477 1477 1476 1477 1476 1476 1476 1476 1477 1477 1478 1478 1478 1479 1480 1481 1482 1483 1484 1485 1486 1487 1488 1489 1489 1490 1490 1491 1492 1493 1494 1494 1494 1493 1494 1493